This demonstration page uses our WeatherBlox Daily Observations layout. Learn more.

40.92945, -100.16068

Hourly Observations for September 4, 2018

Temp ( °F °C ) Dew Point ( °F °C ) Humidity (%) Winds ( mph kmh ) Pressure ( in mb ) Visibility ( mi km ) Precip ( " mm )
12:15 am 00:15 Cloudy 70 21.2 68 19.9 92 92 SSE 7 11 29.94 1014 10 16.0934 0 0
12:35 am 00:35 Cloudy 70 21.3 68 20 92 92 SSE 7 11 29.94 1014 10 16.0934 0 0
12:55 am 00:55 Cloudy 70 21.3 68 19.8 91 91 SSE 12 19 29.94 1014 10 16.0934 0 0
1:15 am 01:15 Cloudy 70 21.2 67 19.7 91 91 S 9 15 29.94 1014 10 16.0934 0 0
1:35 am 01:35 Cloudy 70 21.1 67 19.7 92 92 S 8 13 29.94 1014 10 16.0934 0 0
1:55 am 01:55 Cloudy 70 21.1 67 19.7 92 92 S 9 15 29.94 1014 10 16.0934 0 0
2:15 am 02:15 Cloudy 70 21 67 19.6 92 92 S 10 17 29.94 1014 10 16.0934 0 0
2:35 am 02:35 Cloudy 69 20.8 67 19.6 93 93 SSE 8 13 29.94 1014 7 11.26538 0 0
2:55 am 02:55 Cloudy 69 20.8 67 19.6 93 93 S 8 13 29.94 1014 7 11.26538 0 0
3:15 am 03:15 Cloudy 70 21 67 19.7 92 92 S 9 15 29.94 1014 10 16.0934 0 0
3:35 am 03:35 Cloudy 69 20.8 67 19.7 93 93 S 7 11 29.94 1014 10 16.0934 0 0
3:55 am 03:55 Cloudy 69 20.8 67 19.7 93 93 S 7 11 29.91 1013 10 16.0934 0 0
4:15 am 04:15 Cloudy 69 20.7 67 19.6 93 93 Calm 29.91 1013 10 16.0934 0 0
4:35 am 04:35 Cloudy 69 20.7 67 19.6 93 93 SE 3 6 29.91 1013 10 16.0934 0 0
4:55 am 04:55 Cloudy 69 20.6 67 19.5 93 93 SSE 5 7 29.91 1013 10 16.0934 0 0
5:15 am 05:15 Cloudy 69 20.6 67 19.5 93 93 SE 5 7 29.91 1013 10 16.0934 0 0
5:35 am 05:35 Cloudy 69 20.6 67 19.5 93 93 SE 5 7 29.91 1013 10 16.0934 0 0
5:55 am 05:55 Cloudy 69 20.6 67 19.6 94 94 SSE 5 7 29.91 1013 10 16.0934 0 0
6:15 am 06:15 Cloudy 69 20.6 67 19.6 94 94 SE 3 6 29.91 1013 7 11.26538 0 0
6:35 am 06:35 Cloudy with Mist and Fog 69 20.7 67 19.7 94 94 SE 5 7 29.91 1013 5 8.0467 0 0
6:55 am 06:55 Cloudy with Mist and Fog 69 20.6 67 19.7 95 95 SE 5 7 29.91 1013 3 4.82802 0 0
7:15 am 07:15 Cloudy with Mist and Fog 69 20.5 67 19.6 95 95 SE 5 7 29.91 1013 4 6.43736 0 0
7:35 am 07:35 Cloudy with Mist and Fog 69 20.6 68 19.8 95 95 SE 5 7 29.91 1013 3 4.82802 0 0
7:55 am 07:55 Cloudy with Mist and Fog 69 20.6 68 19.8 95 95 SE 7 11 29.91 1013 3 4.82802 0 0
8:15 am 08:15 Cloudy with Mist and Fog 69 20.8 68 20 95 95 SE 6 9 29.91 1013 4 6.43736 0 0
8:35 am 08:35 Cloudy 70 21.2 68 20.2 94 94 SE 5 7 29.91 1013 7 11.26538 0 0
8:55 am 08:55 Cloudy 71 21.4 68 20 92 92 Calm 29.91 1013 10 16.0934 0 0
9:15 am 09:15 Cloudy 71 21.6 67 19.7 89 89 SE 3 6 29.91 1013 10 16.0934 0 0
9:35 am 09:35 Cloudy 71 21.9 67 19.7 87 87 Calm 29.91 1013 10 16.0934 0 0
9:55 am 09:55 Cloudy 72 22.4 68 19.8 85 85 ESE 5 7 29.91 1013 10 16.0934 0 0
10:15 am 10:15 Cloudy 73 22.6 68 19.8 84 84 SE 5 7 29.91 1013 10 16.0934 0 0
10:35 am 10:35 Cloudy 73 23 68 19.8 82 82 SE 3 6 29.91 1013 10 16.0934 0 0
10:55 am 10:55 Cloudy 74 23.5 68 19.9 80 80 S 3 6 29.88 1012 10 16.0934 0 0
11:15 am 11:15 Cloudy 75 23.7 67 19.6 78 78 SSE 3 6 29.88 1012 10 16.0934 0 0
11:35 am 11:35 Cloudy 75 24.1 68 19.9 77 77 Calm 29.91 1013 10 16.0934 0 0
11:55 am 11:55 Cloudy 76 24.6 68 19.9 75 75 ESE 3 6 29.91 1013 10 16.0934 0 0
12:15 pm 12:15 Cloudy 78 25.5 68 20 72 72 Calm 29.88 1012 10 16.0934 0 0
12:35 pm 12:35 Cloudy 77 25.2 67 19.7 72 72 Calm 29.91 1013 10 16.0934 0 0
12:55 pm 12:55 Cloudy 78 25.6 67 19.7 70 70 ESE 5 7 29.88 1012 10 16.0934 0 0
1:15 pm 13:15 Cloudy 79 26 68 19.9 69 69 ESE 7 11 29.88 1012 10 16.0934 0 0
1:35 pm 13:35 Cloudy 78 25.7 68 19.8 70 70 SSE 7 11 29.88 1012 10 16.0934 0 0
1:55 pm 13:55 Mostly Cloudy 79 26.2 67 19.7 68 68 SSE 5 7 29.88 1012 10 16.0934 0 0
2:15 pm 14:15 Mostly Cloudy 81 27.1 68 20 65 65 SSE 5 7 29.85 1011 10 16.0934 0 0
2:35 pm 14:35 Partly Cloudy 82 27.5 68 19.8 63 63 SSE 7 11 29.83 1010 10 16.0934 0 0
2:55 pm 14:55 Mostly Cloudy 81 27.2 68 19.8 64 64 SSE 3 6 29.83 1010 10 16.0934 0 0
3:15 pm 15:15 Mostly Cloudy 80 26.5 67 19.6 66 66 S 8 13 29.85 1011 10 16.0934 0 0
3:35 pm 15:35 Cloudy 80 26.5 67 19.5 65 65 SE 6 9 29.85 1011 10 16.0934 0 0
3:55 pm 15:55 Mostly Cloudy 83 28.6 68 20 60 60 SE 5 7 29.83 1010 10 16.0934 0 0
4:15 pm 16:15 Cloudy 80 26.5 66 19 63 63 S 6 9 29.8 1009 10 16.0934 0 0
4:35 pm 16:35 Partly Cloudy 80 26.5 66 18.9 63 63 SSE 7 11 29.8 1009 10 16.0934 0 0
4:55 pm 16:55 Sunny 79 26.3 66 19.1 65 65 SSE 3 6 29.8 1009 10 16.0934 0 0
5:15 pm 17:15 Sunny 79 26.1 67 19.2 66 66 SSE 5 7 29.83 1010 10 16.0934 0 0
5:35 pm 17:35 Partly Cloudy 82 27.7 67 19.5 61 61 SSE 8 13 29.8 1009 10 16.0934 0 0
5:55 pm 17:55 Partly Cloudy 80 26.7 67 19.3 64 64 S 6 9 29.83 1010 10 16.0934 0 0
6:15 pm 18:15 Cloudy 80 26.5 67 19.5 65 65 S 6 9 29.85 1011 10 16.0934 0 0
6:35 pm 18:35 Cloudy 79 26.2 67 19.7 68 68 Calm 29.85 1011 10 16.0934 0 0
6:55 pm 18:55 Cloudy with Nearby Thunderstorms 71 21.9 64 17.8 78 78 NW 21 33 29.91 1013 10 16.0934 0 0
7:15 pm 19:15 Cloudy with Heavy Rain 66 19 63 17.2 89 89 NNW 18 30 29.94 1014 1.5 2.41401 0.46 11.684
7:35 pm 19:35 Cloudy with Heavy Rain 66 18.7 63 17 90 90 NNW 14 22 29.94 1014 2.5 4.02335 0.65 16.51
7:55 pm 19:55 Cloudy with Nearby Thunderstorms 66 19 64 17.5 91 91 N 10 17 29.94 1014 10 16.0934 0.68 17.272
8:15 pm 20:15 Cloudy with Nearby Thunderstorms 66 19.1 64 18 93 93 N 8 13 29.94 1014 10 16.0934 0 0
8:35 pm 20:35 Cloudy with Light Rain 67 19.7 65 18.6 93 93 N 6 9 29.97 1015 10 16.0934 0.01 0.254
8:55 pm 20:55 Cloudy with Light Rain 67 19.7 65 18.6 93 93 E 6 9 29.97 1015 10 16.0934 0.04 1.016
9:15 pm 21:15 Cloudy with Light Rain 67 19.5 65 18.4 93 93 NE 5 7 29.97 1015 10 16.0934 0.01 0.254
9:35 pm 21:35 Cloudy with Light Rain 66 19.1 64 18 93 93 NNE 9 15 29.97 1015 10 16.0934 0.03 0.762
9:55 pm 21:55 Cloudy 66 19 64 18 94 94 NE 13 20 29.97 1015 10 16.0934 0.05 1.27
10:15 pm 22:15 Mostly Cloudy 65 18.6 63 17.3 92 92 NNE 5 7 29.97 1015 10 16.0934 0 0
10:35 pm 22:35 Mostly Cloudy 66 18.8 64 17.6 93 93 Calm 30 1016 10 16.0934 0 0
10:55 pm 22:55 Cloudy 66 19 64 17.7 92 92 Calm 30 1016 10 16.0934 0 0
11:15 pm 23:15 Cloudy 66 19 64 17.7 92 92 Calm 30 1016 10 16.0934 0 0
11:35 pm 23:35 Cloudy 66 19 64 17.9 93 93 Calm 30 1016 10 16.0934 0 0
11:55 pm 23:55 Cloudy 66 19.1 64 18 93 93 Calm 30 1016 10 16.0934 0 0

Powered by AerisWeather